﻿測定場所 (Monitoring sites),日付 (Measurement date),時間 (Measurement time),線量率 最大値 (max) μGy/h,線量率 最小値 (min) μGy/h,線量率 平均値 (average) μGy/h,
小平 (Kodaira),2013-07-28,23:01～24:00,0.0374,0.0329,0.0353,
小平 (Kodaira),2013-07-28,22:01～23:00,0.0381,0.0337,0.0355,
小平 (Kodaira),2013-07-28,21:01～22:00,0.0368,0.0327,0.0353,
小平 (Kodaira),2013-07-28,20:01～21:00,0.0375,0.0327,0.0353,
小平 (Kodaira),2013-07-28,19:01～20:00,0.0375,0.0331,0.0353,
小平 (Kodaira),2013-07-28,18:01～19:00,0.0376,0.0331,0.0354,
小平 (Kodaira),2013-07-28,17:01～18:00,0.0377,0.0335,0.0356,
小平 (Kodaira),2013-07-28,16:01～17:00,0.0369,0.0332,0.0353,
小平 (Kodaira),2013-07-28,15:01～16:00,0.0379,0.0336,0.0356,
小平 (Kodaira),2013-07-28,14:01～15:00,0.0373,0.0336,0.0354,
小平 (Kodaira),2013-07-28,13:01～14:00,0.0393,0.0338,0.0356,
小平 (Kodaira),2013-07-28,12:01～13:00,0.0384,0.0332,0.0352,
小平 (Kodaira),2013-07-28,11:01～12:00,0.0369,0.0335,0.0354,
小平 (Kodaira),2013-07-28,10:01～11:00,0.0375,0.0327,0.0357,
小平 (Kodaira),2013-07-28,09:01～10:00,0.0372,0.0339,0.0357,
小平 (Kodaira),2013-07-28,08:01～09:00,0.0371,0.0334,0.0359,
小平 (Kodaira),2013-07-28,07:01～08:00,0.0384,0.0330,0.0359,
小平 (Kodaira),2013-07-28,06:01～07:00,0.0391,0.0338,0.0359,
小平 (Kodaira),2013-07-28,05:01～06:00,0.0368,0.0332,0.0353,
小平 (Kodaira),2013-07-28,04:01～05:00,0.0390,0.0325,0.0353,
小平 (Kodaira),2013-07-28,03:01～04:00,0.0372,0.0328,0.0354,
小平 (Kodaira),2013-07-28,02:01～03:00,0.0379,0.0341,0.0358,
小平 (Kodaira),2013-07-28,01:01～02:00,0.0373,0.0333,0.0353,
小平 (Kodaira),2013-07-28,00:01～01:00,0.0391,0.0339,0.0362,
小平 (Kodaira),2013-07-27,23:01～24:00,0.0407,0.0348,0.0377,
小平 (Kodaira),2013-07-27,22:01～23:00,0.0529,0.0377,0.0443,
小平 (Kodaira),2013-07-27,21:01～22:00,0.0585,0.0486,0.0533,
小平 (Kodaira),2013-07-27,20:01～21:00,0.0650,0.0493,0.0572,
小平 (Kodaira),2013-07-27,19:01～20:00,0.0613,0.0336,0.0431,
小平 (Kodaira),2013-07-27,18:01～19:00,0.0381,0.0337,0.0355,
小平 (Kodaira),2013-07-27,17:01～18:00,0.0372,0.0336,0.0353,
小平 (Kodaira),2013-07-27,16:01～17:00,0.0379,0.0331,0.0351,
小平 (Kodaira),2013-07-27,15:01～16:00,0.0372,0.0334,0.0351,
小平 (Kodaira),2013-07-27,14:01～15:00,0.0386,0.0335,0.0356,
小平 (Kodaira),2013-07-27,13:01～14:00,0.0372,0.0326,0.0353,
小平 (Kodaira),2013-07-27,12:01～13:00,0.0372,0.0331,0.0353,
小平 (Kodaira),2013-07-27,11:01～12:00,0.0370,0.0335,0.0353,
小平 (Kodaira),2013-07-27,10:01～11:00,0.0372,0.0332,0.0351,
小平 (Kodaira),2013-07-27,09:01～10:00,0.0373,0.0330,0.0354,
小平 (Kodaira),2013-07-27,08:01～09:00,0.0383,0.0322,0.0354,
小平 (Kodaira),2013-07-27,07:01～08:00,0.0374,0.0328,0.0354,
小平 (Kodaira),2013-07-27,06:01～07:00,0.0376,0.0334,0.0356,
小平 (Kodaira),2013-07-27,05:01～06:00,0.0367,0.0334,0.0350,
小平 (Kodaira),2013-07-27,04:01～05:00,0.0382,0.0331,0.0353,
小平 (Kodaira),2013-07-27,03:01～04:00,0.0371,0.0327,0.0353,
小平 (Kodaira),2013-07-27,02:01～03:00,0.0372,0.0338,0.0355,
小平 (Kodaira),2013-07-27,01:01～02:00,0.0387,0.0324,0.0352,
小平 (Kodaira),2013-07-27,00:01～01:00,0.0369,0.0322,0.0348,
小平 (Kodaira),2013-07-26,23:01～24:00,0.0367,0.0333,0.0349,
小平 (Kodaira),2013-07-26,22:01～23:00,0.0369,0.0332,0.0348,
小平 (Kodaira),2013-07-26,21:01～22:00,0.0365,0.0314,0.0349,
小平 (Kodaira),2013-07-26,20:01～21:00,0.0363,0.0327,0.0345,
小平 (Kodaira),2013-07-26,19:01～20:00,0.0368,0.0320,0.0344,
小平 (Kodaira),2013-07-26,18:01～19:00,0.0375,0.0320,0.0346,
小平 (Kodaira),2013-07-26,17:01～18:00,0.0360,0.0324,0.0347,
小平 (Kodaira),2013-07-26,16:01～17:00,0.0363,0.0327,0.0344,
小平 (Kodaira),2013-07-26,15:01～16:00,0.0369,0.0328,0.0351,
小平 (Kodaira),2013-07-26,14:01～15:00,0.0371,0.0324,0.0350,
小平 (Kodaira),2013-07-26,13:01～14:00,0.0374,0.0324,0.0348,
小平 (Kodaira),2013-07-26,12:01～13:00,0.0373,0.0325,0.0351,
小平 (Kodaira),2013-07-26,11:01～12:00,0.0366,0.0335,0.0351,
小平 (Kodaira),2013-07-26,10:01～11:00,0.0369,0.0327,0.0349,
小平 (Kodaira),2013-07-26,09:01～10:00,0.0371,0.0321,0.0351,
小平 (Kodaira),2013-07-26,08:01～09:00,0.0363,0.0333,0.0349,
小平 (Kodaira),2013-07-26,07:01～08:00,0.0373,0.0326,0.0348,
小平 (Kodaira),2013-07-26,06:01～07:00,0.0366,0.0329,0.0350,
小平 (Kodaira),2013-07-26,05:01～06:00,0.0366,0.0327,0.0349,
小平 (Kodaira),2013-07-26,04:01～05:00,0.0367,0.0326,0.0351,
小平 (Kodaira),2013-07-26,03:01～04:00,0.0368,0.0333,0.0348,
小平 (Kodaira),2013-07-26,02:01～03:00,0.0387,0.0338,0.0356,
小平 (Kodaira),2013-07-26,01:01～02:00,0.0372,0.0331,0.0352,
小平 (Kodaira),2013-07-26,00:01～01:00,0.0382,0.0333,0.0351,
小平 (Kodaira),2013-07-25,23:01～24:00,0.0372,0.0332,0.0350,
小平 (Kodaira),2013-07-25,22:01～23:00,0.0376,0.0335,0.0355,
小平 (Kodaira),2013-07-25,21:01～22:00,0.0371,0.0331,0.0352,
小平 (Kodaira),2013-07-25,20:01～21:00,0.0390,0.0341,0.0362,
小平 (Kodaira),2013-07-25,19:01～20:00,0.0372,0.0325,0.0351,
小平 (Kodaira),2013-07-25,18:01～19:00,0.0367,0.0318,0.0348,
小平 (Kodaira),2013-07-25,17:01～18:00,0.0393,0.0333,0.0351,
小平 (Kodaira),2013-07-25,16:01～17:00,0.0368,0.0329,0.0349,
小平 (Kodaira),2013-07-25,15:01～16:00,0.0368,0.0324,0.0348,
小平 (Kodaira),2013-07-25,14:01～15:00,0.0374,0.0322,0.0349,
小平 (Kodaira),2013-07-25,13:01～14:00,0.0367,0.0317,0.0345,
小平 (Kodaira),2013-07-25,12:01～13:00,0.0369,0.0327,0.0351,
小平 (Kodaira),2013-07-25,11:01～12:00,0.0363,0.0329,0.0347,
小平 (Kodaira),2013-07-25,10:01～11:00,0.0370,0.0327,0.0348,
小平 (Kodaira),2013-07-25,09:01～10:00,0.0378,0.0325,0.0349,
小平 (Kodaira),2013-07-25,08:01～09:00,0.0373,0.0335,0.0350,
小平 (Kodaira),2013-07-25,07:01～08:00,0.0395,0.0329,0.0359,
小平 (Kodaira),2013-07-25,06:01～07:00,0.0384,0.0343,0.0361,
小平 (Kodaira),2013-07-25,05:01～06:00,0.0409,0.0347,0.0367,
小平 (Kodaira),2013-07-25,04:01～05:00,0.0388,0.0327,0.0359,
小平 (Kodaira),2013-07-25,03:01～04:00,0.0375,0.0334,0.0354,
小平 (Kodaira),2013-07-25,02:01～03:00,0.0378,0.0330,0.0350,
小平 (Kodaira),2013-07-25,01:01～02:00,0.0367,0.0323,0.0350,
小平 (Kodaira),2013-07-25,00:01～01:00,0.0401,0.0336,0.0362,
小平 (Kodaira),2013-07-24,23:01～24:00,0.0437,0.0365,0.0393,
小平 (Kodaira),2013-07-24,22:01～23:00,0.0518,0.0411,0.0463,
小平 (Kodaira),2013-07-24,21:01～22:00,0.0470,0.0348,0.0413,
小平 (Kodaira),2013-07-24,20:01～21:00,0.0380,0.0334,0.0359,
小平 (Kodaira),2013-07-24,19:01～20:00,0.0410,0.0350,0.0373,
小平 (Kodaira),2013-07-24,18:01～19:00,0.0427,0.0357,0.0391,
小平 (Kodaira),2013-07-24,17:01～18:00,0.0427,0.0365,0.0401,
小平 (Kodaira),2013-07-24,16:01～17:00,0.0433,0.0371,0.0401,
小平 (Kodaira),2013-07-24,15:01～16:00,0.0446,0.0368,0.0417,
小平 (Kodaira),2013-07-24,14:01～15:00,0.0449,0.0385,0.0421,
小平 (Kodaira),2013-07-24,13:01～14:00,0.0419,0.0354,0.0386,
小平 (Kodaira),2013-07-24,12:01～13:00,0.0386,0.0335,0.0356,
小平 (Kodaira),2013-07-24,11:01～12:00,0.0373,0.0314,0.0349,
小平 (Kodaira),2013-07-24,10:01～11:00,0.0369,0.0329,0.0348,
小平 (Kodaira),2013-07-24,09:01～10:00,0.0368,0.0337,0.0351,
小平 (Kodaira),2013-07-24,08:01～09:00,0.0364,0.0330,0.0346,
小平 (Kodaira),2013-07-24,07:01～08:00,0.0367,0.0333,0.0348,
小平 (Kodaira),2013-07-24,06:01～07:00,0.0371,0.0325,0.0349,
小平 (Kodaira),2013-07-24,05:01～06:00,0.0369,0.0330,0.0349,
小平 (Kodaira),2013-07-24,04:01～05:00,0.0364,0.0321,0.0347,
小平 (Kodaira),2013-07-24,03:01～04:00,0.0368,0.0330,0.0351,
小平 (Kodaira),2013-07-24,02:01～03:00,0.0370,0.0330,0.0346,
小平 (Kodaira),2013-07-24,01:01～02:00,0.0366,0.0326,0.0349,
小平 (Kodaira),2013-07-24,00:01～01:00,0.0363,0.0330,0.0346,
小平 (Kodaira),2013-07-23,23:01～24:00,0.0369,0.0323,0.0349,
小平 (Kodaira),2013-07-23,22:01～23:00,0.0366,0.0332,0.0349,
小平 (Kodaira),2013-07-23,21:01～22:00,0.0376,0.0338,0.0352,
小平 (Kodaira),2013-07-23,20:01～21:00,0.0408,0.0342,0.0369,
小平 (Kodaira),2013-07-23,19:01～20:00,0.0496,0.0357,0.0430,
小平 (Kodaira),2013-07-23,18:01～19:00,0.0586,0.0405,0.0519,
小平 (Kodaira),2013-07-23,17:01～18:00,0.0408,0.0338,0.0364,
小平 (Kodaira),2013-07-23,16:01～17:00,0.0395,0.0342,0.0366,
小平 (Kodaira),2013-07-23,15:01～16:00,0.0443,0.0362,0.0397,
小平 (Kodaira),2013-07-23,14:01～15:00,0.0495,0.0401,0.0449,
小平 (Kodaira),2013-07-23,13:01～14:00,0.0438,0.0351,0.0392,
小平 (Kodaira),2013-07-23,12:01～13:00,0.0374,0.0339,0.0355,
小平 (Kodaira),2013-07-23,11:01～12:00,0.0402,0.0335,0.0360,
小平 (Kodaira),2013-07-23,10:01～11:00,0.0371,0.0352,0.0358,
小平 (Kodaira),2013-07-23,09:01～10:00,0.0389,0.0347,0.0366,
小平 (Kodaira),2013-07-23,08:01～09:00,0.0380,0.0337,0.0363,
小平 (Kodaira),2013-07-23,07:01～08:00,0.0390,0.0342,0.0361,
小平 (Kodaira),2013-07-23,06:01～07:00,0.0390,0.0344,0.0363,
小平 (Kodaira),2013-07-23,05:01～06:00,0.0398,0.0347,0.0367,
小平 (Kodaira),2013-07-23,04:01～05:00,0.0406,0.0354,0.0371,
小平 (Kodaira),2013-07-23,03:01～04:00,0.0400,0.0350,0.0373,
小平 (Kodaira),2013-07-23,02:01～03:00,0.0403,0.0361,0.0375,
小平 (Kodaira),2013-07-23,01:01～02:00,0.0403,0.0346,0.0370,
小平 (Kodaira),2013-07-23,00:01～01:00,0.0390,0.0347,0.0365,
小平 (Kodaira),2013-07-22,23:01～24:00,0.0409,0.0342,0.0366,
小平 (Kodaira),2013-07-22,22:01～23:00,0.0408,0.0338,0.0362,
小平 (Kodaira),2013-07-22,21:01～22:00,0.0421,0.0341,0.0376,
小平 (Kodaira),2013-07-22,20:01～21:00,0.0559,0.0389,0.0460,
小平 (Kodaira),2013-07-22,19:01～20:00,0.0646,0.0504,0.0580,
小平 (Kodaira),2013-07-22,18:01～19:00,0.0533,0.0369,0.0429,
小平 (Kodaira),2013-07-22,17:01～18:00,0.0394,0.0336,0.0362,
小平 (Kodaira),2013-07-22,16:01～17:00,0.0385,0.0333,0.0354,
小平 (Kodaira),2013-07-22,15:01～16:00,0.0384,0.0337,0.0353,
小平 (Kodaira),2013-07-22,14:01～15:00,0.0375,0.0333,0.0355,
小平 (Kodaira),2013-07-22,13:01～14:00,0.0384,0.0332,0.0356,
小平 (Kodaira),2013-07-22,12:01～13:00,0.0389,0.0340,0.0355,
小平 (Kodaira),2013-07-22,11:01～12:00,0.0371,0.0338,0.0358,
小平 (Kodaira),2013-07-22,10:01～11:00,0.0370,0.0340,0.0354,
小平 (Kodaira),2013-07-22,09:01～10:00,0.0378,0.0326,0.0357,
小平 (Kodaira),2013-07-22,08:01～09:00,0.0374,0.0335,0.0355,
小平 (Kodaira),2013-07-22,07:01～08:00,0.0383,0.0333,0.0358,
小平 (Kodaira),2013-07-22,06:01～07:00,0.0382,0.0338,0.0358,
小平 (Kodaira),2013-07-22,05:01～06:00,0.0395,0.0337,0.0359,
小平 (Kodaira),2013-07-22,04:01～05:00,0.0378,0.0333,0.0355,
小平 (Kodaira),2013-07-22,03:01～04:00,0.0370,0.0338,0.0355,
小平 (Kodaira),2013-07-22,02:01～03:00,0.0368,0.0331,0.0351,
小平 (Kodaira),2013-07-22,01:01～02:00,0.0373,0.0339,0.0355,
小平 (Kodaira),2013-07-22,00:01～01:00,0.0374,0.0325,0.0353,
